[[{"header":{"parameterUnit":"m.s-1","parameterCategory":1,"la1":30.2991,"la2":30.254,"lo1":-89.0895,"lo2":-89.0444,"dy":0.0017,"dx":0.0017,"nx":28,"ny":28,"refTime":"2025-08-22T21:00:00:Z","depth":0,"parameterNumber":2,"parameterNumberName":"U-component_of_WINDS"},"data":[0,0,0,0,0,0,0,0,0,0,0,0,0,0,0,0,0,0,0,0,0,0,0,0,0,0,0,0,0,0,0,0,0,0,0,0,0,0,0,0,0,0,0,0,0,0,0,0,0,0,0,0,0,0,0,0,0,0,0.6944,0.6945,0,0.7002,0.7003,0.7003,0.7054,0.7054,0.7055,0.7055,0.7115,0.7116,0.7117,0,0,0,0,0,0,0,0,0,0,0,0,0,0.6877,0.6878,0.6944,0.6945,0.6946,0.7002,0.7003,0.7003,0.7054,0.7054,0.7055,0.7056,0.7114,0.7116,0.7117,0,0,0,0,0,0,0,0,0,0,0,0,0,0.6918,0.6878,0.6944,0.6977,0.6981,0.7002,0.7003,0.7004,0.7053,0.7054,0.7055,0.7056,0.7114,0.7116,0.7117,0.7109,0,0,0.7122,0.7123,0,0,0,0,0,0,0,0,0.6915,0.692,0.6972,0.6975,0.6979,0.7021,0.7001,0.7039,0.7053,0.7026,0.7055,0.7056,0.7083,0.7087,0.7096,0.7112,0.7115,0.7122,0.7123,0.7124,0.7124,0,0,0,0,0,0,0,0.6912,0.6918,0.6967,0.6972,0.6977,0.6989,0.6996,0.7008,0.7049,0.7028,0.7032,0.7038,0.7085,0.7094,0.7098,0.7116,0.7122,0.7123,0.7124,0.7125,0.7127,0.7126,0,0,0,0,0,0,0.6904,0.6915,0.6965,0.6969,0.6949,0.699,0.6997,0.7007,0.7049,0.7056,0.7037,0.704,0.7091,0.7096,0.71,0.7093,0.7124,0.7125,0.7126,0.7128,0.7127,0.7126,0,0,0,0,0,0,0.6903,0.6908,0.6963,0.6943,0.6951,0.699,0.7001,0.7008,0.7017,0.7056,0.7063,0.7039,0.7092,0.7098,0.7106,0.7096,0.7126,0.7127,0.7129,0.7128,0.7126,0.7079,0,0,0,0,0,0,0.6901,0.6908,0.6905,0.6943,0.6952,0.6968,0.7,0.7008,0.702,0.7024,0.706,0.7066,0.7093,0.7104,0.7108,0.7099,0.7128,0.713,0.7128,0.7127,0.7082,0.7077,0.7072,0,0,0,0,0,0.6898,0.689,0.6905,0.6911,0.695,0.6967,0.6973,0.7004,0.7019,0.7016,0.7041,0.7065,0.7096,0.7104,0.7109,0.71,0.7131,0.7129,0.7127,0.7084,0.7078,0.7072,0,0,0,0,0,0,0.6851,0.6895,0.6912,0.6916,0.6937,0.6976,0.6974,0.6996,0.7014,0.7017,0.7055,0.7063,0.7067,0.7085,0.7092,0.7095,0.7117,0.7116,0.7083,0.7077,0.7072,0.7067,0.713,0,0,0,0,0,0.684,0.6851,0.689,0.6889,0.6899,0.6935,0.6944,0.6966,0.6989,0.6999,0.7024,0.7046,0.7061,0.707,0.7086,0.7085,0.7093,0.7081,0.7076,0.7072,0.707,0.707,0.7065,0.712,0.712,0.712,0,0,0.682,0.6846,0.685,0.688,0.69,0.691,0.6942,0.6952,0.6959,0.7,0.7009,0.7029,0.7056,0.7059,0.7062,0.7074,0.7057,0.7069,0.7065,0.7066,0.7068,0.7062,0.7058,0.7118,0.7118,0.7119,0,0,0.6787,0.6808,0.6809,0.6828,0.6856,0.688,0.688,0.6915,0.6929,0.6939,0.697,0.6979,0.7004,0.7022,0.7034,0.7007,0.703,0.7011,0.6985,0.6984,0.698,0.6976,0.6966,0.6962,0.701,0.701,0.7009,0,0.6758,0.6774,0.6807,0.6815,0.6827,0.6864,0.6865,0.6882,0.6914,0.6921,0.6934,0.6965,0.6986,0.6994,0.6987,0.6996,0.6997,0.7007,0.6978,0.6974,0.6972,0.6962,0.6958,0.7007,0.7007,0.7008,0.7008,0,0.6736,0.6747,0.6745,0.6774,0.6786,0.679,0.6824,0.6832,0.6853,0.6874,0.6883,0.691,0.6931,0.6935,0.6955,0.6945,0.6952,0.6971,0.6994,0.6963,0.6955,0.6951,0.7003,0.7004,0.7005,0.7006,0,0,0.6675,0.6723,0.6721,0.6735,0.6768,0.6777,0.6783,0.6803,0.6809,0.683,0.6835,0.6855,0.6872,0.6886,0.6909,0.6909,0.6884,0.6928,0.6929,0.6918,0.6873,0.6858,0.6853,0.69,0.6899,0.6899,0.6871,0,0.6648,0.666,0.6689,0.6692,0.6702,0.6737,0.6742,0.6763,0.6784,0.6795,0.6818,0.683,0.6853,0.6862,0.6863,0.6887,0.6876,0.6889,0.6904,0.6905,0.6896,0.6849,0.6833,0.6806,0.6868,0.6867,0.6867,0,0.6617,0.6635,0.6638,0.6671,0.6676,0.668,0.67,0.6711,0.6735,0.675,0.6765,0.679,0.6797,0.6819,0.6829,0.6838,0.6846,0.6858,0.6858,0.686,0.6883,0.6849,0.6798,0.6793,0.6862,0.6863,0.6863,0,0.6571,0.6596,0.6601,0.6612,0.665,0.6651,0.6667,0.6693,0.6703,0.6721,0.6727,0.6746,0.6756,0.677,0.6799,0.6813,0.6806,0.683,0.6818,0.6817,0.6815,0.6815,0.6763,0.6821,0.6821,0.6821,0.6821,0,0.6537,0.6537,0.6581,0.6584,0.6586,0.662,0.662,0.6639,0.6661,0.6668,0.67,0.6706,0.6745,0.6755,0.6778,0.6783,0.6787,0.6799,0.6805,0.6796,0.6794,0.6801,0.6804,0.682,0.682,0.6821,0.6821,0,0.6486,0.6515,0.6523,0.6558,0.6567,0.6566,0.6596,0.66,0.6622,0.6631,0.6635,0.6669,0.6683,0.6714,0.6736,0.6751,0.675,0.6761,0.6741,0.6745,0.6731,0.6731,0.6682,0.6677,0.6738,0.6737,0.6737,0,0.6461,0.6462,0.6497,0.6504,0.6519,0.653,0.654,0.6573,0.6582,0.6609,0.661,0.6626,0.6641,0.6661,0.6688,0.6705,0.6717,0.6698,0.672,0.671,0.6715,0.6715,0.6715,0.6693,0.6692,0.6692,0.6691,0,0.6415,0.6429,0.6443,0.6461,0.6472,0.6488,0.6506,0.6509,0.6547,0.6556,0.657,0.6581,0.6603,0.6619,0.664,0.6656,0.6679,0.6684,0.6682,0.6672,0.666,0.6666,0.6728,0.6685,0.6686,0.6686,0.6686,0.6687,0.6376,0.6378,0.6403,0.6416,0.6433,0.6449,0.6454,0.6476,0.6489,0.6509,0.6528,0.654,0.6564,0.6594,0.6609,0.6618,0.663,0.6628,0.6627,0.6625,0.6621,0.6659,0.6622,0.6623,0.6623,0.6623,0.6623,0,0.633,0.6348,0.636,0.6383,0.6394,0.6415,0.6435,0.6443,0.6453,0.6473,0.6486,0.6502,0.6517,0.6545,0.6562,0.6564,0.6575,0.6568,0.6567,0.6571,0.661,0.6609,0.6558,0.6558,0.6558,0.6558,0.6558,0.6558,0.6308,0.6312,0.6329,0.6342,0.636,0.6372,0.6381,0.6396,0.6411,0.6427,0.644,0.6458,0.6481,0.65,0.6514,0.6522,0.6526,0.6515,0.6526,0.6562,0.6568,0.6574,0.6574,0.6516,0.6516,0.6486,0.6486,0.6486]},{"header":{"parameterUnit":"m.s-1","parameterCategory":1,"la1":30.2991,"la2":30.254,"lo1":-89.0895,"lo2":-89.0444,"dy":0.0017,"dx":0.0017,"nx":28,"ny":28,"refTime":"2025-08-22T21:00:00:Z","depth":0,"parameterNumber":3,"parameterNumberName":"V-component_of_WINDS"},"data":[0,0,0,0,0,0,0,0,0,0,0,0,0,0,0,0,0,0,0,0,0,0,0,0,0,0,0,0,0,0,0,0,0,0,0,0,0,0,0,0,0,0,0,0,0,0,0,0,0,0,0,0,0,0,0,0,0,0,-0.0219,-0.0219,0,-0.0237,-0.0237,-0.0237,-0.0222,-0.0221,-0.0221,-0.022,-0.0238,-0.0239,-0.024,0,0,0,0,0,0,0,0,0,0,0,0,0,-0.0171,-0.0172,-0.0219,-0.0219,-0.022,-0.0237,-0.0237,-0.0237,-0.0222,-0.0221,-0.022,-0.022,-0.0238,-0.0239,-0.024,0,0,0,0,0,0,0,0,0,0,0,0,0,-0.0191,-0.0173,-0.0219,-0.0214,-0.0214,-0.0237,-0.0237,-0.0237,-0.0222,-0.0221,-0.022,-0.0219,-0.0237,-0.0239,-0.0241,-0.0269,0,0,-0.0245,-0.0246,0,0,0,0,0,0,0,0,-0.019,-0.0193,-0.0215,-0.0214,-0.0214,-0.0226,-0.0227,-0.0248,-0.0222,-0.0219,-0.022,-0.0219,-0.0235,-0.0237,-0.0242,-0.027,-0.0271,-0.0246,-0.0247,-0.0247,-0.0248,0,0,0,0,0,0,0,-0.0189,-0.0192,-0.0226,-0.0215,-0.0215,-0.0211,-0.0212,-0.0231,-0.0232,-0.0219,-0.0218,-0.022,-0.0235,-0.0241,-0.0242,-0.0271,-0.0246,-0.0247,-0.0248,-0.0249,-0.0322,-0.0323,0,0,0,0,0,0,-0.0188,-0.0191,-0.0226,-0.0227,-0.0199,-0.0212,-0.0214,-0.0223,-0.0232,-0.0232,-0.0221,-0.022,-0.0238,-0.0241,-0.0243,-0.0276,-0.0247,-0.0249,-0.025,-0.0321,-0.0323,-0.0324,0,0,0,0,0,0,-0.0187,-0.0191,-0.0225,-0.0208,-0.0212,-0.0214,-0.0224,-0.0224,-0.023,-0.0233,-0.0233,-0.0227,-0.0238,-0.0241,-0.0263,-0.0276,-0.0249,-0.0251,-0.032,-0.0322,-0.0323,-0.0343,0,0,0,0,0,0,-0.0185,-0.0191,-0.0202,-0.0209,-0.0213,-0.0244,-0.0225,-0.0225,-0.0233,-0.0231,-0.0239,-0.0239,-0.0237,-0.026,-0.0264,-0.0278,-0.0252,-0.0319,-0.0321,-0.0323,-0.0341,-0.0345,-0.0348,0,0,0,0,0,-0.0184,-0.0207,-0.0203,-0.0207,-0.0227,-0.0245,-0.0248,-0.0245,-0.0234,-0.0245,-0.0247,-0.0239,-0.0275,-0.0263,-0.0267,-0.0282,-0.0318,-0.032,-0.0323,-0.0339,-0.0344,-0.0348,0,0,0,0,0,0,-0.0202,-0.0208,-0.0203,-0.0229,-0.0237,-0.0243,-0.0256,-0.025,-0.0261,-0.0259,-0.0255,-0.0257,-0.0279,-0.0283,-0.027,-0.0309,-0.0294,-0.0298,-0.0306,-0.031,-0.0314,-0.0312,-0.0254,0,0,0,0,0,-0.021,-0.0224,-0.0228,-0.0251,-0.0255,-0.0255,-0.0263,-0.026,-0.0267,-0.027,-0.0274,-0.0282,-0.0294,-0.0303,-0.0315,-0.0342,-0.0343,-0.0354,-0.0358,-0.0361,-0.0363,-0.0376,-0.0381,-0.0331,-0.0331,-0.0331,0,0,-0.0224,-0.0229,-0.0239,-0.0255,-0.026,-0.0274,-0.0258,-0.0274,-0.0284,-0.0273,-0.0293,-0.0296,-0.0304,-0.0328,-0.0339,-0.0332,-0.0377,-0.0363,-0.0366,-0.0367,-0.0379,-0.0383,-0.0388,-0.0333,-0.0332,-0.0332,0,0,-0.0258,-0.0264,-0.0283,-0.0289,-0.0297,-0.0297,-0.0301,-0.0308,-0.0309,-0.0329,-0.0321,-0.0333,-0.0356,-0.0361,-0.0367,-0.0402,-0.0395,-0.0406,-0.0425,-0.0437,-0.0441,-0.0445,-0.0456,-0.046,-0.0409,-0.0409,-0.0409,0,-0.0276,-0.0297,-0.0294,-0.031,-0.0316,-0.0307,-0.0325,-0.0331,-0.0343,-0.0347,-0.0339,-0.0366,-0.0371,-0.0396,-0.0404,-0.041,-0.0414,-0.0405,-0.0441,-0.0444,-0.0447,-0.0458,-0.0462,-0.041,-0.041,-0.041,-0.041,0,-0.0317,-0.0332,-0.0346,-0.0357,-0.0365,-0.0383,-0.0381,-0.039,-0.0387,-0.0387,-0.0407,-0.0413,-0.0425,-0.0431,-0.0428,-0.0455,-0.045,-0.0442,-0.0426,-0.0453,-0.0463,-0.0467,-0.0412,-0.0412,-0.0411,-0.0411,0,0,-0.0363,-0.0371,-0.0376,-0.038,-0.0389,-0.04,-0.0416,-0.0428,-0.0435,-0.0444,-0.0456,-0.0475,-0.0467,-0.0474,-0.0471,-0.0482,-0.0508,-0.0472,-0.0472,-0.0477,-0.0536,-0.0541,-0.0546,-0.0503,-0.0504,-0.0505,-0.0535,0,-0.0396,-0.0424,-0.0421,-0.0448,-0.0461,-0.0452,-0.0466,-0.0472,-0.0473,-0.0484,-0.0485,-0.0497,-0.0486,-0.049,-0.0501,-0.0502,-0.0519,-0.05,-0.0514,-0.0515,-0.0511,-0.0551,-0.0557,-0.0585,-0.0539,-0.0539,-0.054,0,-0.0438,-0.0447,-0.0475,-0.048,-0.0485,-0.0498,-0.0508,-0.0518,-0.0525,-0.0525,-0.0532,-0.0527,-0.0542,-0.0528,-0.0549,-0.0536,-0.0542,-0.0544,-0.0545,-0.0545,-0.0528,-0.0551,-0.0594,-0.0598,-0.0546,-0.0546,-0.0545,0,-0.0467,-0.0486,-0.0505,-0.0509,-0.0516,-0.0524,-0.0528,-0.0533,-0.054,-0.0549,-0.0553,-0.0563,-0.0569,-0.0577,-0.0575,-0.0565,-0.0596,-0.0582,-0.0595,-0.0595,-0.0601,-0.0601,-0.0645,-0.0607,-0.0607,-0.0607,-0.0607,0,-0.0503,-0.052,-0.0518,-0.0529,-0.0548,-0.0544,-0.0562,-0.0564,-0.0569,-0.058,-0.0574,-0.0584,-0.0581,-0.0592,-0.059,-0.0607,-0.061,-0.061,-0.0609,-0.0609,-0.0609,-0.0612,-0.061,-0.0608,-0.0608,-0.0608,-0.0608,0,-0.0538,-0.0537,-0.0556,-0.0561,-0.0562,-0.0575,-0.0579,-0.0589,-0.059,-0.0604,-0.0607,-0.0607,-0.0619,-0.0618,-0.0631,-0.063,-0.0651,-0.0648,-0.0648,-0.0647,-0.066,-0.0659,-0.0707,-0.0712,-0.0673,-0.0673,-0.0673,0,-0.056,-0.0573,-0.0578,-0.0585,-0.0589,-0.06,-0.0607,-0.0604,-0.0611,-0.0618,-0.0628,-0.0639,-0.0647,-0.0666,-0.0668,-0.0677,-0.0674,-0.069,-0.0676,-0.0676,-0.0673,-0.0671,-0.0672,-0.0693,-0.0693,-0.0694,-0.0694,0,-0.06,-0.0599,-0.0608,-0.0618,-0.0625,-0.0633,-0.0639,-0.0645,-0.0643,-0.0651,-0.0663,-0.0669,-0.0682,-0.0693,-0.0702,-0.0705,-0.0699,-0.0699,-0.0702,-0.0702,-0.0701,-0.0701,-0.0655,-0.0697,-0.0697,-0.0697,-0.0697,-0.0697,-0.0628,-0.0638,-0.0643,-0.0654,-0.0658,-0.0665,-0.0674,-0.0675,-0.0685,-0.0695,-0.0693,-0.0705,-0.0711,-0.0722,-0.0726,-0.0736,-0.073,-0.0735,-0.0736,-0.0737,-0.0738,-0.0701,-0.0738,-0.0737,-0.0737,-0.0737,-0.0737,0,-0.0666,-0.0669,-0.0678,-0.0687,-0.0696,-0.0689,-0.0696,-0.0703,-0.0714,-0.072,-0.0728,-0.0741,-0.0751,-0.0753,-0.0762,-0.0769,-0.0766,-0.0772,-0.077,-0.0771,-0.0744,-0.0739,-0.0774,-0.0774,-0.0774,-0.0774,-0.0774,-0.0774,-0.0687,-0.0703,-0.0702,-0.0721,-0.0723,-0.0735,-0.0739,-0.0745,-0.0749,-0.0763,-0.0771,-0.0772,-0.0776,-0.0785,-0.0794,-0.0794,-0.0798,-0.0804,-0.0803,-0.0777,-0.0773,-0.077,-0.0765,-0.0805,-0.0805,-0.0829,-0.0829,-0.0829]}]]